Weather History for KNYL - June, 2013

Change the Weather History Date:

Tuesday, June 11, 2013

  Actual Average Record
Temperature  
Mean Temperature 91 °F 88 °F  
Max Temperature 107 °F 103 °F 115 °F (1956)
Min Temperature 75 °F 73 °F 55 °F (1913)
Degree Days  
Heating Degree Days 0 0  
Month to date heating degree days 0 0  
Since 1 June heating degree days 0 0  
Since 1 July heating degree days 705 686  
Cooling Degree Days 26 23  
Month to date cooling degree days 290 238  
Year to date cooling degree days 1351 1150  
Since 1 June cooling degree days 290 238  
Growing Degree Days 40 (Base 50)    
Moisture  
Dew Point 35 °F    
Average Humidity 19    
Maximum Humidity 33    
Minimum Humidity 5    
Precipitation  
Precipitation 0.00 in 0.00 in 0.00 in (2015)
Month to date precipitation 0.00 0.00  
Year to date precipitation 1.11 1.32  
Sea Level Pressure  
Sea Level Pressure 29.75 in    
Wind  
Wind Speed 4 mph (SW)    
Max Wind Speed 10 mph    
Max Gust Speed 13 mph    
Visibility 10 miles    
Events      
T = Trace of Precipitation, MM = Missing Value Source: NWS Daily Summary

Daily Weather History Graph

Daily Weather History Graph

Search for Another Location

Airport or City:

Trip Planner

Search our weather history database for the weather conditions in past years. The results will help you decide how hot, cold, wet, or windy it might be!

Date:

Astronomy

Jun. 11, 2013 Rise Set
Actual Time 5:30 AM MST 7:46 PM MST
Civil Twilight 5:01 AM MST 8:14 PM MST
Nautical Twilight 4:26 AM MST 8:49 PM MST
Astronomical Twilight 3:49 AM MST 9:27 PM MST
Moon 8:10 AM MST (6/11) 9:59 PM MST (6/11)
Length of Visible Light 15h 13m
Length of Day
14h 16m
Waxing Crescent, 9% of the Moon is Illuminated
Jun 11
Waxing Crescent
Jun 16
First Quarter
Jun 23
Full
Jun 29
Last Quarter
Jul 8
New

Hourly Weather History & Observations

Time (MST) Temp. Dew Point Humidity Pressure Visibility Wind Dir Wind Speed Gust Speed Precip Events Conditions
12:57 AM 84.9 °F 35.1 °F 17% 29.74 in 10.0 mi WSW 4.6 mph - N/A   Partly Cloudy
1:57 AM 82.0 °F 37.0 °F 20% 29.74 in 10.0 mi West 4.6 mph - N/A   Partly Cloudy
2:57 AM 79.0 °F 39.0 °F 24% 29.73 in 10.0 mi Calm Calm - N/A   Partly Cloudy
3:57 AM 75.9 °F 44.1 °F 32% 29.74 in 10.0 mi Calm Calm - N/A   Scattered Clouds
4:57 AM 77.0 °F 42.1 °F 29% 29.74 in 10.0 mi Calm Calm - N/A   Mostly Cloudy
5:57 AM 75.0 °F 43.0 °F 32% 29.77 in 10.0 mi SSE 10.4 mph - N/A   Mostly Cloudy
6:57 AM 79.0 °F 37.9 °F 23% 29.78 in 10.0 mi SSW 3.5 mph - N/A   Scattered Clouds
7:57 AM 82.9 °F 42.1 °F 24% 29.80 in 10.0 mi South 3.5 mph - N/A   Partly Cloudy
8:57 AM 89.1 °F 39.9 °F 18% 29.82 in 10.0 mi Variable 4.6 mph - N/A   Partly Cloudy
9:57 AM 93.9 °F 36.0 °F 13% 29.81 in 10.0 mi SW 4.6 mph - N/A   Partly Cloudy
10:57 AM 99.0 °F 25.0 °F 7% 29.82 in 10.0 mi Calm Calm - N/A   Scattered Clouds
11:57 AM 102.0 °F 23.0 °F 6% 29.81 in 10.0 mi Variable 4.6 mph - N/A   Scattered Clouds
12:57 PM 102.9 °F 21.0 °F 5% 29.79 in 10.0 mi Variable 3.5 mph - N/A   Mostly Cloudy
1:57 PM 105.1 °F 21.0 °F 5% 29.77 in 10.0 mi Variable 3.5 mph - N/A   Mostly Cloudy
2:57 PM 106.0 °F 25.0 °F 6% 29.75 in 10.0 mi WNW 6.9 mph - N/A   Mostly Cloudy
3:57 PM 106.0 °F 28.0 °F 7% 29.73 in 10.0 mi West 5.8 mph - N/A   Mostly Cloudy
4:57 PM 105.1 °F 28.9 °F 7% 29.71 in 10.0 mi West 4.6 mph - N/A   Mostly Cloudy
5:57 PM 104.0 °F 35.1 °F 9% 29.70 in 9.0 mi NW 5.8 mph - N/A   Mostly Cloudy
6:57 PM 102.9 °F 35.1 °F 10% 29.71 in 10.0 mi WNW 3.5 mph - N/A   Mostly Cloudy
7:57 PM 99.0 °F 39.0 °F 13% 29.71 in 10.0 mi Calm Calm - N/A   Mostly Cloudy
8:57 PM 97.0 °F 37.9 °F 13% 29.72 in 10.0 mi Calm Calm - N/A   Mostly Cloudy
9:57 PM 95.0 °F 44.1 °F 17% 29.74 in 10.0 mi SW 6.9 mph - N/A   Mostly Cloudy
10:57 PM 91.0 °F 46.9 °F 22% 29.74 in 10.0 mi South 4.6 mph - N/A   Mostly Cloudy
11:57 PM 90.0 °F 44.1 °F 20% 29.74 in 10.0 mi SSE 9.2 mph - N/A   Mostly Cloudy